Location: Byszew
(52.1813°N, 19.2693°E)
Time: 08:04:15
(UTC+00:00)

CAS-4B - Pass Details

Date: 01 July 2022
Orbit: 522 x 536 km, 43.0° (Epoch: 07 August)

Event Time Altitude Azimuth Distance (km) Brightness Sun altitude
Exits shadow 01:11:15 - 191° (SSW) 1,807 ? -8.4°
Reaches altitude 10° 01:11:30 10° 188° (S) 1,755 ? -8.3°
Maximum altitude 01:13:33 14° 158° (SSE) 1,539 ? -8.2°
Drops below altitude 10° 01:15:36 10° 127° (SE) 1,762 ? -8.0°
Sets 01:18:45 0° 101° (E) 2,657 ? -7.7°
